Simultaneous Nadir Overpasses (SNOs) Predictions

Prediction of SNOs between LANDSAT-8 and METOP-A Satellite Orbit:

Table of predicted SNOs for the next 14.0 days since TLE Epoch: 8/16/2014
Index Date (LANDSAT-8) Time (LANDSAT-8) Lat,Lon (LANDSAT-8) SZA (LANDSAT-8 ) Date (METOP-A) Time (METOP-A) Lat,Lon (METOP-A) SZA (METOP-A ) Distance(km) Time Diff (sec)
1 08/17/2014 23:29:26 -81.10, 47.30 110.11 08/17/2014 23:29:13 -81.10, 47.20 110.13 1.77 13
2 08/18/2014 00:18:51 81.13,-144.66 69.97 08/18/2014 00:19:51 81.13,-144.56 70.01 1.70 60
3 08/20/2014 19:03:41 -81.11, 113.91 109.15 08/20/2014 19:03:36 -81.11, 113.98 109.15 1.18 5
4 08/20/2014 19:53:07 81.12, -78.42 70.87 08/20/2014 19:54:16 81.12, -78.54 70.89 2.04 69
5 08/23/2014 13:48:30 81.10, 12.42 71.76 08/23/2014 13:47:20 81.10, 12.56 71.74 2.38 70
6
